Regional Weather Roundup
Issued by NWS

Home | Current Version | Previous Version | Text Only | Print | Product List | Glossary On
Versions: 1 2 3 4 5 6 7 8 9 10 11 12 13 14 15 16 17 18 19 20 21 22 23 24 25 26 27 28 29 30 31 32 33 34 35 36 37 38 39 40 41 42 43 44 45 46 47 48 49 50
000
ASUS43 KMPX 040901
RWRMN
WEATHER ROUNDUP FOR MINNESOTA
NATIONAL WEATHER SERVICE TWIN CITIES/CHANHASSEN MN
400 AM CDT TUE AUG 04 2015


NOTE: "FAIR" INDICATES FEW OR NO CLOUDS BELOW 12,000 FEET WITH NO
SIGNIFICANT WEATHER AND/OR OBSTRUCTIONS TO VISIBILITY. N/A MEANS
CURRENT SKY AND/OR WEATHER CONDITIONS ARE NOT AVAILABLE.

MNZ060>063-068>070-041000-
   Twin Cities Metro

CITY           SKY/WX    TMP DP  RH WIND       PRES   REMARKS
TWIN CITIES    CLEAR     61  54  77 W3        29.96S
ST PAUL        CLEAR     61  55  81 CALM      29.96S
CRYSTAL        CLEAR     58  53  84 CALM      29.94F
BLAINE         CLEAR     57  55  94 CALM      29.95S
LAKEVILLE      CLEAR     52  52 100 CALM      29.96S
EDEN PRAIRIE   CLEAR     59  54  83 CALM      29.95S
SOUTH ST PAUL  CLEAR     61  54  77 CALM      29.95S
LAKE ELMO      FAIR      54  52  94 CALM      29.97S
$$
MNZ001>005-007-008-013>017-022>024-027-028-041000-
   Northwest Minnesota

CITY           SKY/WX    TMP DP  RH WIND       PRES   REMARKS
BEMIDJI        CLEAR     48  45  87 CALM      29.95S
HALLOCK        CLEAR     50  48  93 NE5       29.96S
ROSEAU         CLEAR     54  48  82 NW5       29.96S
WARROAD        CLOUDY    55  52  88 NW5       29.96S
THIEF RVR FALL PTCLDY    55  48  76 CALM      29.96R
CROOKSTON      CLEAR     52  48  87 CALM      29.96R
FOSSTON        CLEAR     46  45  93 CALM      29.96S
DETROIT LAKES  CLEAR     59  52  77 W3        29.96S
MOORHEAD       CLEAR     54  48  82 CALM      29.95F
PARK RAPIDS    CLEAR     51  47  86 CALM      29.96S
MAHNOMEN       FAIR      53  50  90 S3        29.96S
$$
MNZ006-009>011-018-025>026-041000-
   North Central Minnesota

CITY           SKY/WX    TMP DP  RH WIND       PRES   REMARKS
BAUDETTE       CLEAR     51  49  92 W6        29.93R
FLAG ISLAND    MOCLDY    57  54  88 NW8       29.93S
INTL FALLS     MOCLDY    45  43  93 CALM      29.92R
WASKISH        CLEAR     57  54  88 NW5       29.94S
BIG FORK       CLEAR     45  45 100 CALM      29.94S
LONGVILLE      CLEAR     48  48 100 CALM      29.95R
GRAND RAPIDS   CLEAR     50  46  87 CALM      29.94S
CRANE LAKE     CLOUDY    50  50 100 CALM      29.92S
ORR            CLEAR     50  46  87 CALM      29.90S
COOK           CLEAR     46  46 100 CALM      29.93R
WALKER         FAIR      50  47  89 W3        29.95S
$$
MNZ012-019>021-037-041000-
   Northeast Minnesota

CITY           SKY/WX    TMP DP  RH WIND       PRES   REMARKS
DULUTH         PTCLDY    56  50  80 NW8       29.92R
ELY            CLEAR     48  48 100 CALM      29.91S FOG
HIBBING        MOCLDY    47  46  97 CALM      29.93R
EVELETH        CLEAR     52  50  93 NW5       29.93R
DULUTH HARBOR  PTCLDY    61  55  82 W10       29.91R
TWO HARBORS    CLEAR     55  52  88 W3        29.89S
SILVER BAY     CLEAR     55  52  88 W3        29.88R
GRAND MARAIS     N/A     53  50  89 CALM      29.86R
G MARAIS ARPRT CLEAR     52  48  87 CALM      29.88S
$$
MNZ029>031-032-039>041-046>048-054>057-064-041000-
   West Central Minnesota

CITY           SKY/WX    TMP DP  RH WIND       PRES   REMARKS
FERGUS FALLS   CLEAR     55  55 100 CALM      29.96S
WHEATON        CLEAR     48  46  93 CALM      29.97S
MORRIS         CLEAR     52  50  93 CALM      29.95F
ALEXANDRIA     CLEAR     56  51  84 SW5       29.97F
ELBOW LAKE     FAIR      55  53  92 CALM      29.96S
WADENA         CLEAR     46  45  93 CALM      29.96S
GLENWOOD       CLEAR     55  55 100 CALM      29.96F
APPLETON       CLEAR     54  50  87 CALM      29.95F
BENSON         CLEAR     48  46  93 CALM      29.95F
ORTONVILLE     CLEAR     55  52  88 CALM      29.96S
MADISON        CLEAR     52  50  93 CALM      29.96F
WILLMAR        FAIR      52  50  93 CALM      29.97F
$$
MNZ033>034-036-042>043-049>051-058-059-041000-
   Central Minnesota

CITY           SKY/WX    TMP DP  RH WIND       PRES   REMARKS
ST CLOUD       CLEAR     50  49  96 CALM      29.96S
SAUK CENTRE    FAIR      50  49  95 CALM      29.96F
PAYNESVILLE    CLEAR     47  47 100 CALM      29.97F
AITKIN         CLEAR     48  43  81 CALM      29.93S
PINE RIVER     CLEAR     46  45  93 CALM      29.99S
BRAINERD       CLEAR     49  48  97 S3        29.96R
STAPLES        CLEAR     50  48  93 CALM      29.96S
LONG PRAIRIE     N/A     50  50 100 CALM      29.97S FOG
LITCHFIELD     CLEAR     57  54  88 CALM      29.96F
BUFFALO        CLEAR     54  50  86 CALM      29.97F
$$
MNZ037-044-045-052-053-041000-
   East Central Minnesota

CITY           SKY/WX    TMP DP  RH WIND       PRES   REMARKS
PRINCETON      CLEAR     52  50  93 CALM      29.96S
MORA           CLEAR     50  50 100 CALM      29.97R
CAMBRIDGE      CLEAR     55  46  71 CALM      29.94S
RUSH CITY      MOCLDY    52  51  95 W3        29.95S
MOOSE LAKE     CLEAR     50  50 100 CALM      29.92R
HINCKLEY       FAIR      52  52 100 W5        29.94S
CLOQUET        CLEAR     55  50  82 W7        29.93R
MCGREGOR       CLEAR     52  50  93 CALM      29.94S
$$
MNZ071>073-080-081-089-090-097-098-041000-
   Southwest Minnesota

CITY           SKY/WX    TMP DP  RH WIND       PRES   REMARKS
MONTEVIDEO     CLEAR     54  46  76 CALM      29.98S
GRANITE FALLS  CLEAR     50  49  97 CALM      29.98S
CANBY          CLEAR     52  49  91 CALM      29.98S
MARSHALL       CLEAR     52  48  87 SW6       29.98S
REDWOOD FALLS  CLEAR     56  51  84 CALM      29.96F
OLIVIA         CLEAR     50  45  81 CALM      29.96S
PIPESTONE      CLEAR     59  54  82 CALM      29.98S
WINDOM         CLEAR     52  48  87 CALM      29.98F
WORTHINGTON    CLEAR     55  50  82 NE3       29.98F
JACKSON        CLEAR     55  54  94 CALM      29.99F
TRACY          CLEAR     59  54  82 SW5       29.98F
SLAYTON        CLEAR     54  51  90 CALM      29.99F
$$
MNZ065>067-074>077-082>085-091>093-041000-
   South Central Minnesota

CITY           SKY/WX    TMP DP  RH WIND       PRES   REMARKS
MANKATO        CLEAR     57  50  77 CALM      29.96S
NEW ULM        CLEAR     54  52  94 CALM      29.96F
ST JAMES         N/A     54  52  94 S3        29.98S
FAIRMONT       CLEAR     55  48  76 CALM      29.98S
GLENCOE        CLEAR     53  51  95 CALM      29.95F
FARIBAULT      CLEAR     52  50  93 CALM      29.96S
OWATONNA       CLEAR     52  48  87 CALM      29.96F
WASECA         CLEAR     52  50  93 S3        29.98S
ALBERT LEA     CLEAR     54  54 100 CALM      29.97S
$$
MNZ078>079-086>088-094>096-041000-
   Southeast Minnesota

CITY           SKY/WX    TMP DP  RH WIND       PRES   REMARKS
ROCHESTER      CLEAR     55  51  86 NW6       29.97S
RED WING       CLEAR     55  54  94 CALM      29.94F
STANTON        CLEAR     53  50  90 CALM      29.95S
DODGE CENTER   CLEAR     55  52  88 N6        29.96F
WINONA         CLEAR     59  55  88 CALM      29.95R
AUSTIN         CLEAR     55  52  88 CALM      29.96F
PRESTON        CLEAR     55  51  86 NW3       29.96S
$$
ABBREVIATIONS USED IN REMARKS
   TC - TEMPERATURES IN CELSIUS
  WCI - WIND CHILL INDEX
   HX - HEAT INDEX
  VSB - VISIBILITY
$$



USA.gov is the U.S. government's official web portal to all federal, state and local government web resources and services.